| time (UTC) | temp F | wind direction | speed MPH | gust MPH | rain 1hr in | rain 24hr in | rain mn in | humidity % | barometer mb |
| 20260906170604 | 72 | 77 | 2.0 | 6.0 | 0.00 | 0.00 | 0.00 | 68 | 1022.8 |
| 20260906165603 | 72 | 77 | 2.0 | 6.0 | 0.00 | 0.00 | 0.00 | 67 | 1022.9 |
| 20260906165103 | 72 | 77 | 2.0 | 6.0 | 0.00 | 0.00 | 0.00 | 68 | 1022.8 |
| 20260906164604 | 72 | 77 | 2.0 | 6.0 | 0.00 | 0.00 | 0.00 | 68 | 1022.9 |
| 20260906164103 | 72 | 77 | 2.0 | 6.0 | 0.00 | 0.00 | 0.00 | 67 | 1022.9 |
| 20260906163604 | 73 | 77 | 2.0 | 6.0 | 0.00 | 0.00 | 0.00 | 65 | 1022.9 |
| 20260906163104 | 73 | 77 | 2.0 | 6.0 | 0.00 | 0.00 | 0.00 | 67 | 1022.9 |
| 20260906162604 | 73 | 77 | 2.0 | 6.0 | 0.00 | 0.00 | 0.00 | 64 | 1022.9 |
| 20260906162103 | 72 | 77 | 2.0 | 6.0 | 0.00 | 0.00 | 0.00 | 66 | 1022.9 |
| 20260906161604 | 72 | 77 | 2.0 | 6.0 | 0.00 | 0.00 | 0.00 | 67 | 1022.9 |
| 20260906160103 | 73 | 77 | 2.0 | 6.0 | 0.00 | 0.00 | 0.00 | 65 | 1022.9 |
| 20260906155604 | 72 | 77 | 2.0 | 6.0 | 0.00 | 0.00 | 0.00 | 68 | 1022.8 |
| 20260906155104 | 73 | 77 | 2.0 | 6.0 | 0.00 | 0.00 | 0.00 | 67 | 1022.8 |
| 20260906154103 | 72 | 77 | 2.0 | 6.0 | 0.00 | 0.00 | 0.00 | 67 | 1022.9 |
| 20260906153604 | 71 | 77 | 2.0 | 6.0 | 0.00 | 0.00 | 0.00 | 71 | 1022.9 |
| 20260906153104 | 70 | 77 | 2.0 | 6.0 | 0.00 | 0.00 | 0.00 | 74 | 1022.9 |
| 20260906152604 | 69 | 77 | 2.0 | 6.0 | 0.00 | 0.00 | 0.00 | 74 | 1022.9 |
| 20260906152104 | 69 | 77 | 2.0 | 6.0 | 0.00 | 0.00 | 0.00 | 73 | 1022.9 |
| 20260906151604 | 69 | 77 | 2.0 | 6.0 | 0.00 | 0.00 | 0.00 | 73 | 1022.9 |
| 20260906151104 | 69 | 77 | 2.0 | 6.0 | 0.00 | 0.00 | 0.00 | 73 | 1022.9 |
| 20260906150604 | 69 | 77 | 2.0 | 6.0 | 0.00 | 0.00 | 0.00 | 74 | 1022.9 |
| 20260906145604 | 68 | 77 | 2.0 | 6.0 | 0.00 | 0.00 | 0.00 | 76 | 1022.9 |
| 20260906145104 | 68 | 77 | 2.0 | 6.0 | 0.00 | 0.00 | 0.00 | 75 | 1022.8 |
| 20260906144604 | 67 | 77 | 2.0 | 6.0 | 0.00 | 0.00 | 0.00 | 78 | 1022.8 |
| 20260906144104 | 67 | 77 | 2.0 | 6.0 | 0.00 | 0.00 | 0.00 | 78 | 1022.7 |
| 20260906143603 | 66 | 77 | 2.0 | 6.0 | 0.00 | 0.00 | 0.00 | 78 | 1022.7 |
| 20260906142103 | 64 | 77 | 2.0 | 6.0 | 0.00 | 0.00 | 0.00 | 80 | 1022.7 |
| 20260906141104 | 63 | 77 | 2.0 | 6.0 | 0.00 | 0.00 | 0.00 | 82 | 1022.7 |
| 20260906140104 | 63 | 77 | 2.0 | 6.0 | 0.00 | 0.00 | 0.00 | 83 | 1022.7 |
| 20260906134604 | 62 | 77 | 2.0 | 6.0 | 0.00 | 0.00 | 0.00 | 84 | 1022.6 |
| 20260906134103 | 62 | 77 | 2.0 | 6.0 | 0.00 | 0.00 | 0.00 | 84 | 1022.7 |
| 20260906132604 | 61 | 77 | 2.0 | 6.0 | 0.00 | 0.00 | 0.00 | 86 | 1022.5 |
| 20260906132103 | 61 | 77 | 2.0 | 6.0 | 0.00 | 0.00 | 0.00 | 87 | 1022.5 |
| 20260906131604 | 60 | 77 | 2.0 | 6.0 | 0.00 | 0.00 | 0.00 | 87 | 1022.5 |
| 20260906131104 | 60 | 77 | 2.0 | 6.0 | 0.00 | 0.00 | 0.00 | 88 | 1022.4 |
| 20260906130604 | 60 | 77 | 2.0 | 6.0 | 0.00 | 0.00 | 0.00 | 88 | 1022.4 |
| 20260906130104 | 60 | 77 | 2.0 | 6.0 | 0.00 | 0.00 | 0.00 | 89 | 1022.3 |
| 20260906125604 | 60 | 77 | 2.0 | 6.0 | 0.00 | 0.00 | 0.00 | 89 | 1022.3 |
| 20260906124603 | 60 | 77 | 2.0 | 6.0 | 0.00 | 0.00 | 0.00 | 89 | 1022.3 |
| 20260906124103 | 60 | 77 | 2.0 | 6.0 | 0.00 | 0.00 | 0.00 | 89 | 1022.3 |
| 20260906123104 | 60 | 77 | 2.0 | 6.0 | 0.00 | 0.00 | 0.00 | 89 | 1022.3 |
| 20260906122604 | 60 | 77 | 2.0 | 6.0 | 0.00 | 0.00 | 0.00 | 90 | 1022.3 |
| 20260906122103 | 60 | 77 | 2.0 | 6.0 | 0.00 | 0.00 | 0.00 | 90 | 1022.2 |
| 20260906121604 | 60 | 77 | 2.0 | 6.0 | 0.00 | 0.00 | 0.00 | 90 | 1022.3 |
| 20260906121103 | 60 | 77 | 2.0 | 6.0 | 0.00 | 0.00 | 0.00 | 90 | 1022.2 |
| 20260906120603 | 60 | 77 | 2.0 | 6.0 | 0.00 | 0.00 | 0.00 | 90 | 1022.2 |
| 20260906120104 | 60 | 77 | 2.0 | 6.0 | 0.00 | 0.00 | 0.00 | 90 | 1022.2 |
| 20260906115104 | 60 | 77 | 2.0 | 6.0 | 0.00 | 0.00 | 0.00 | 90 | 1022.1 |
| 20260906114604 | 61 | 77 | 2.0 | 6.0 | 0.00 | 0.00 | 0.00 | 90 | 1022.1 |
| 20260906114104 | 61 | 77 | 2.0 | 6.0 | 0.00 | 0.00 | 0.00 | 89 | 1022.1 |
| 20260906113603 | 61 | 77 | 2.0 | 6.0 | 0.00 | 0.00 | 0.00 | 89 | 1022.1 |
| 20260906113103 | 61 | 77 | 2.0 | 6.0 | 0.00 | 0.00 | 0.00 | 89 | 1022.1 |
| 20260906112603 | 61 | 77 | 2.0 | 6.0 | 0.00 | 0.00 | 0.00 | 88 | 1022.1 |
| 20260906112103 | 62 | 77 | 2.0 | 6.0 | 0.00 | 0.00 | 0.00 | 88 | 1022.0 |
| 20260906111603 | 62 | 77 | 2.0 | 6.0 | 0.00 | 0.00 | 0.00 | 88 | 1022.0 |
| 20260906111104 | 62 | 77 | 2.0 | 6.0 | 0.00 | 0.00 | 0.00 | 88 | 1022.0 |
| 20260906110603 | 61 | 77 | 2.0 | 6.0 | 0.00 | 0.00 | 0.00 | 88 | 1022.0 |
| 20260906110104 | 61 | 77 | 2.0 | 6.0 | 0.00 | 0.00 | 0.00 | 88 | 1022.1 |
| 20260906104603 | 61 | 77 | 2.0 | 6.0 | 0.00 | 0.00 | 0.00 | 89 | 1022.2 |
| 20260906104104 | 61 | 77 | 2.0 | 6.0 | 0.00 | 0.00 | 0.00 | 89 | 1022.2 |
| 20260906103604 | 61 | 77 | 2.0 | 6.0 | 0.00 | 0.00 | 0.00 | 89 | 1022.2 |
| 20260906103103 | 61 | 77 | 2.0 | 6.0 | 0.00 | 0.00 | 0.00 | 89 | 1022.2 |
| 20260906102604 | 61 | 77 | 2.0 | 6.0 | 0.00 | 0.00 | 0.00 | 89 | 1022.2 |
| 20260906102104 | 61 | 77 | 2.0 | 6.0 | 0.00 | 0.00 | 0.00 | 89 | 1022.2 |
| 20260906101104 | 62 | 77 | 2.0 | 6.0 | 0.00 | 0.00 | 0.00 | 89 | 1022.2 |
| 20260906100604 | 62 | 77 | 2.0 | 6.0 | 0.00 | 0.00 | 0.00 | 88 | 1022.3 |
| 20260906100104 | 62 | 77 | 2.0 | 6.0 | 0.00 | 0.00 | 0.00 | 88 | 1022.2 |
| 20260906095603 | 62 | 77 | 2.0 | 6.0 | 0.00 | 0.00 | 0.00 | 88 | 1022.3 |
| 20260906095103 | 62 | 77 | 2.0 | 6.0 | 0.00 | 0.00 | 0.00 | 88 | 1022.2 |
| 20260906094604 | 62 | 77 | 2.0 | 6.0 | 0.00 | 0.00 | 0.00 | 88 | 1022.2 |
| 20260906094104 | 62 | 77 | 2.0 | 6.0 | 0.00 | 0.00 | 0.00 | 88 | 1022.3 |
| 20260906093603 | 62 | 77 | 2.0 | 6.0 | 0.00 | 0.00 | 0.00 | 88 | 1022.3 |
| 20260906093104 | 62 | 77 | 2.0 | 6.0 | 0.00 | 0.00 | 0.00 | 88 | 1022.3 |
| 20260906092104 | 62 | 77 | 2.0 | 6.0 | 0.00 | 0.00 | 0.00 | 89 | 1022.3 |
| 20260906091603 | 62 | 77 | 2.0 | 6.0 | 0.00 | 0.00 | 0.00 | 89 | 1022.3 |
| 20260906091104 | 62 | 77 | 2.0 | 6.0 | 0.00 | 0.00 | 0.00 | 89 | 1022.2 |
| 20260906090104 | 62 | 77 | 2.0 | 6.0 | 0.00 | 0.00 | 0.00 | 88 | 1022.3 |
| 20260906085104 | 62 | 77 | 2.0 | 6.0 | 0.00 | 0.00 | 0.00 | 87 | 1022.3 |
| 20260906084604 | 62 | 77 | 2.0 | 6.0 | 0.00 | 0.00 | 0.00 | 86 | 1022.4 |
| 20260906083604 | 62 | 77 | 2.0 | 6.0 | 0.00 | 0.00 | 0.00 | 85 | 1022.4 |
| 20260906083103 | 62 | 77 | 2.0 | 6.0 | 0.00 | 0.00 | 0.00 | 85 | 1022.4 |
| 20260906082604 | 62 | 77 | 2.0 | 6.0 | 0.00 | 0.00 | 0.00 | 85 | 1022.5 |
| 20260906082104 | 62 | 77 | 2.0 | 6.0 | 0.00 | 0.00 | 0.00 | 85 | 1022.5 |
| 20260906081603 | 62 | 77 | 2.0 | 6.0 | 0.00 | 0.00 | 0.00 | 85 | 1022.6 |
| 20260906081103 | 63 | 77 | 2.0 | 6.0 | 0.00 | 0.00 | 0.00 | 85 | 1022.7 |
| 20260906080604 | 62 | 77 | 2.0 | 6.0 | 0.00 | 0.00 | 0.00 | 85 | 1022.7 |
| 20260906080104 | 62 | 77 | 2.0 | 6.0 | 0.00 | 0.00 | 0.00 | 85 | 1022.8 |
| 20260906075604 | 62 | 77 | 2.0 | 6.0 | 0.00 | 0.00 | 0.00 | 85 | 1022.8 |
| 20260906075104 | 62 | 77 | 2.0 | 6.0 | 0.00 | 0.00 | 0.00 | 86 | 1022.8 |
| 20260906074104 | 62 | 77 | 2.0 | 6.0 | 0.00 | 0.00 | 0.00 | 86 | 1022.8 |
| 20260906073604 | 62 | 77 | 2.0 | 6.0 | 0.00 | 0.00 | 0.00 | 86 | 1022.9 |
| 20260906073104 | 62 | 77 | 2.0 | 6.0 | 0.00 | 0.00 | 0.00 | 87 | 1022.9 |
| 20260906072604 | 62 | 77 | 2.0 | 6.0 | 0.00 | 0.00 | 0.00 | 86 | 1022.9 |
| 20260906072104 | 62 | 77 | 2.0 | 6.0 | 0.00 | 0.00 | 0.00 | 86 | 1022.8 |
| 20260906071603 | 62 | 77 | 2.0 | 6.0 | 0.00 | 0.00 | 0.00 | 86 | 1022.8 |
| 20260906071104 | 62 | 77 | 2.0 | 6.0 | 0.00 | 0.00 | 0.00 | 85 | 1022.8 |
| 20260906070603 | 63 | 77 | 2.0 | 6.0 | 0.00 | 0.00 | 0.00 | 85 | 1022.8 |
| 20260906070104 | 63 | 77 | 2.0 | 6.0 | 0.00 | 0.00 | 0.00 | 85 | 1022.8 |
| 20260906065604 | 63 | 77 | 2.0 | 6.0 | 0.00 | 0.00 | 0.00 | 85 | 1022.8 |
| 20260906065104 | 62 | 77 | 2.0 | 6.0 | 0.00 | 0.00 | 0.00 | 85 | 1022.8 |
| 20260906064603 | 63 | 77 | 2.0 | 6.0 | 0.00 | 0.00 | 0.00 | 85 | 1022.8 |
| 20260906063604 | 63 | 77 | 2.0 | 6.0 | 0.00 | 0.00 | 0.00 | 85 | 1022.9 |
| 20260906063104 | 63 | 77 | 2.0 | 6.0 | 0.00 | 0.00 | 0.00 | 85 | 1023.0 |
| 20260906062604 | 63 | 77 | 2.0 | 6.0 | 0.00 | 0.00 | 0.00 | 85 | 1023.0 |
| 20260906062104 | 63 | 77 | 2.0 | 6.0 | 0.00 | 0.00 | 0.00 | 85 | 1023.0 |
| 20260906060604 | 63 | 77 | 2.0 | 6.0 | 0.00 | 0.00 | 0.00 | 84 | 1023.0 |
| 20260906060104 | 63 | 77 | 2.0 | 6.0 | 0.00 | 0.00 | 0.00 | 84 | 1023.1 |
| 20260906055104 | 63 | 77 | 2.0 | 6.0 | 0.00 | 0.00 | 0.00 | 84 | 1023.0 |
| 20260906054603 | 63 | 77 | 2.0 | 6.0 | 0.00 | 0.00 | 0.00 | 84 | 1023.0 |
| 20260906053604 | 63 | 77 | 2.0 | 6.0 | 0.00 | 0.00 | 0.00 | 84 | 1023.1 |
| 20260906053104 | 63 | 77 | 2.0 | 6.0 | 0.00 | 0.00 | 0.00 | 84 | 1023.1 |
| 20260906052603 | 63 | 77 | 2.0 | 6.0 | 0.00 | 0.00 | 0.00 | 84 | 1023.1 |
| 20260906052104 | 63 | 77 | 2.0 | 6.0 | 0.00 | 0.00 | 0.00 | 84 | 1023.0 |
| 20260906051604 | 63 | 77 | 2.0 | 6.0 | 0.00 | 0.00 | 0.00 | 85 | 1023.0 |
| 20260906051104 | 63 | 77 | 2.0 | 6.0 | 0.00 | 0.00 | 0.00 | 85 | 1023.0 |
| 20260906045604 | 63 | 77 | 2.0 | 6.0 | 0.00 | 0.00 | 0.00 | 86 | 1023.1 |
| 20260906045104 | 63 | 77 | 2.0 | 6.0 | 0.00 | 0.00 | 0.00 | 85 | 1023.1 |
| 20260906044604 | 63 | 77 | 2.0 | 6.0 | 0.00 | 0.00 | 0.00 | 85 | 1023.1 |
| 20260906044104 | 64 | 77 | 2.0 | 6.0 | 0.00 | 0.00 | 0.00 | 83 | 1023.1 |
| 20260906043604 | 64 | 77 | 2.0 | 6.0 | 0.00 | 0.00 | 0.00 | 83 | 1023.1 |
| 20260906042604 | 63 | 77 | 2.0 | 6.0 | 0.00 | 0.00 | 0.00 | 84 | 1023.1 |
| 20260906041604 | 63 | 77 | 2.0 | 6.0 | 0.00 | 0.00 | 0.00 | 85 | 1023.1 |
| 20260906041103 | 63 | 77 | 2.0 | 6.0 | 0.00 | 0.00 | 0.00 | 84 | 1023.0 |
| 20260906040604 | 64 | 77 | 2.0 | 6.0 | 0.00 | 0.00 | 0.00 | 83 | 1023.1 |
| 20260906040103 | 64 | 77 | 2.0 | 6.0 | 0.00 | 0.00 | 0.00 | 82 | 1023.0 |
| 20260906035103 | 64 | 77 | 2.0 | 6.0 | 0.00 | 0.00 | 0.00 | 82 | 1023.0 |
| 20260906034603 | 64 | 77 | 2.0 | 6.0 | 0.00 | 0.00 | 0.00 | 81 | 1023.0 |
| 20260906034103 | 65 | 77 | 2.0 | 6.0 | 0.00 | 0.00 | 0.00 | 80 | 1022.9 |
| 20260906033604 | 65 | 77 | 2.0 | 6.0 | 0.00 | 0.00 | 0.00 | 80 | 1022.9 |
| 20260906033104 | 65 | 77 | 2.0 | 6.0 | 0.00 | 0.00 | 0.00 | 78 | 1022.8 |
| 20260906032104 | 65 | 77 | 2.0 | 6.0 | 0.00 | 0.00 | 0.00 | 78 | 1022.6 |
| 20260906031104 | 65 | 77 | 2.0 | 6.0 | 0.00 | 0.00 | 0.00 | 79 | 1022.5 |
| 20260906030603 | 64 | 77 | 2.0 | 6.0 | 0.00 | 0.00 | 0.00 | 79 | 1022.4 |
| 20260906030104 | 65 | 77 | 2.0 | 6.0 | 0.00 | 0.00 | 0.00 | 79 | 1022.3 |
| 20260906025104 | 65 | 77 | 2.0 | 6.0 | 0.00 | 0.00 | 0.00 | 79 | 1022.2 |
| 20260906024604 | 64 | 77 | 2.0 | 6.0 | 0.00 | 0.00 | 0.00 | 79 | 1022.2 |
| 20260906024104 | 64 | 77 | 2.0 | 6.0 | 0.00 | 0.00 | 0.00 | 80 | 1022.1 |
| 20260906023103 | 64 | 77 | 2.0 | 6.0 | 0.00 | 0.00 | 0.00 | 80 | 1022.0 |
| 20260906022604 | 64 | 77 | 2.0 | 6.0 | 0.00 | 0.00 | 0.00 | 81 | 1021.9 |
| 20260906022103 | 65 | 77 | 2.0 | 6.0 | 0.00 | 0.00 | 0.00 | 80 | 1021.9 |
| 20260906021603 | 65 | 77 | 2.0 | 6.0 | 0.00 | 0.00 | 0.00 | 80 | 1021.8 |
| 20260906020603 | 64 | 77 | 2.0 | 6.0 | 0.00 | 0.00 | 0.00 | 82 | 1021.7 |
| 20260906015603 | 64 | 77 | 2.0 | 6.0 | 0.00 | 0.00 | 0.00 | 82 | 1021.7 |
| 20260906015104 | 65 | 77 | 2.0 | 6.0 | 0.00 | 0.00 | 0.00 | 83 | 1021.6 |
| 20260906014604 | 65 | 77 | 2.0 | 6.0 | 0.00 | 0.00 | 0.00 | 83 | 1021.6 |
| 20260906014103 | 66 | 77 | 2.0 | 6.0 | 0.00 | 0.00 | 0.00 | 82 | 1021.6 |
| 20260906013103 | 67 | 77 | 2.0 | 6.0 | 0.00 | 0.00 | 0.00 | 79 | 1021.6 |
| 20260906012604 | 68 | 77 | 2.0 | 6.0 | 0.00 | 0.00 | 0.00 | 77 | 1021.6 |
| 20260906012103 | 69 | 77 | 2.0 | 6.0 | 0.00 | 0.00 | 0.00 | 73 | 1021.7 |
| 20260906011604 | 70 | 77 | 2.0 | 6.0 | 0.00 | 0.00 | 0.00 | 73 | 1021.7 |
| 20260906011104 | 70 | 77 | 2.0 | 6.0 | 0.00 | 0.00 | 0.00 | 71 | 1021.5 |
| 20260906010604 | 71 | 77 | 2.0 | 6.0 | 0.00 | 0.00 | 0.00 | 69 | 1021.5 |
| 20260906005604 | 70 | 77 | 2.0 | 6.0 | 0.00 | 0.00 | 0.00 | 69 | 1021.5 |
| 20260906005104 | 70 | 77 | 2.0 | 6.0 | 0.00 | 0.00 | 0.00 | 70 | 1021.5 |
| 20260906004604 | 70 | 77 | 2.0 | 6.0 | 0.00 | 0.00 | 0.00 | 70 | 1021.5 |
| 20260906003604 | 70 | 77 | 2.0 | 6.0 | 0.00 | 0.00 | 0.00 | 71 | 1021.4 |
| 20260906003103 | 71 | 77 | 2.0 | 6.0 | 0.00 | 0.00 | 0.00 | 68 | 1021.4 |
| 20260906002604 | 71 | 77 | 2.0 | 6.0 | 0.00 | 0.00 | 0.00 | 67 | 1021.5 |
| 20260906002104 | 71 | 77 | 2.0 | 6.0 | 0.00 | 0.00 | 0.00 | 66 | 1021.4 |
| 20260906001604 | 71 | 77 | 2.0 | 6.0 | 0.00 | 0.00 | 0.00 | 64 | 1021.3 |
| 20260906001103 | 71 | 77 | 2.0 | 6.0 | 0.00 | 0.00 | 0.00 | 65 | 1021.2 |
| 20260906000604 | 71 | 77 | 2.0 | 6.0 | 0.00 | 0.00 | 0.00 | 68 | 1021.3 |
| 20260906000104 | 71 | 77 | 2.0 | 6.0 | 0.00 | 0.00 | 0.00 | 71 | 1021.2 |
| 20260905235604 | 71 | 77 | 2.0 | 6.0 | 0.00 | 0.00 | 0.00 | 70 | 1021.2 |
| 20260905235103 | 71 | 77 | 2.0 | 6.0 | 0.00 | 0.00 | 0.00 | 72 | 1021.1 |
| 20260905234604 | 72 | 77 | 2.0 | 6.0 | 0.00 | 0.00 | 0.00 | 71 | 1021.1 |
| 20260905234104 | 73 | 77 | 2.0 | 6.0 | 0.00 | 0.00 | 0.00 | 69 | 1021.1 |
| 20260905233604 | 73 | 77 | 2.0 | 6.0 | 0.00 | 0.00 | 0.00 | 66 | 1021.0 |
| 20260905233104 | 73 | 77 | 2.0 | 6.0 | 0.00 | 0.00 | 0.00 | 65 | 1021.1 |
| 20260905232604 | 73 | 77 | 2.0 | 6.0 | 0.00 | 0.00 | 0.00 | 65 | 1021.0 |
| 20260905232103 | 74 | 77 | 2.0 | 6.0 | 0.00 | 0.00 | 0.00 | 64 | 1020.9 |
| 20260905231603 | 74 | 77 | 2.0 | 6.0 | 0.00 | 0.00 | 0.00 | 66 | 1020.8 |
| 20260905231104 | 74 | 77 | 2.0 | 6.0 | 0.00 | 0.00 | 0.00 | 66 | 1020.8 |
| 20260905230604 | 74 | 77 | 2.0 | 6.0 | 0.00 | 0.00 | 0.00 | 66 | 1020.6 |
| 20260905225604 | 74 | 77 | 2.0 | 6.0 | 0.00 | 0.00 | 0.00 | 65 | 1020.6 |
| 20260905224104 | 74 | 77 | 2.0 | 6.0 | 0.00 | 0.00 | 0.00 | 66 | 1020.6 |
| 20260905223604 | 74 | 77 | 2.0 | 6.0 | 0.00 | 0.00 | 0.00 | 65 | 1020.6 |
| 20260905223103 | 74 | 77 | 2.0 | 6.0 | 0.00 | 0.00 | 0.00 | 65 | 1020.6 |
| 20260905222604 | 74 | 77 | 2.0 | 6.0 | 0.00 | 0.00 | 0.00 | 66 | 1020.5 |
| 20260905222104 | 74 | 77 | 2.0 | 6.0 | 0.00 | 0.00 | 0.00 | 65 | 1020.6 |
| 20260905221604 | 74 | 77 | 2.0 | 6.0 | 0.00 | 0.00 | 0.00 | 65 | 1020.6 |
| 20260905221104 | 75 | 77 | 2.0 | 6.0 | 0.00 | 0.00 | 0.00 | 65 | 1020.5 |
| 20260905220603 | 75 | 77 | 2.0 | 6.0 | 0.00 | 0.00 | 0.00 | 65 | 1020.5 |
| 20260905220104 | 75 | 77 | 2.0 | 6.0 | 0.00 | 0.00 | 0.00 | 64 | 1020.5 |
| 20260905215604 | 76 | 77 | 2.0 | 6.0 | 0.00 | 0.00 | 0.00 | 64 | 1020.4 |
| 20260905215104 | 76 | 77 | 2.0 | 6.0 | 0.00 | 0.00 | 0.00 | 64 | 1020.4 |
| 20260905214603 | 76 | 77 | 2.0 | 6.0 | 0.00 | 0.00 | 0.00 | 62 | 1020.4 |
| 20260905213604 | 76 | 77 | 2.0 | 6.0 | 0.00 | 0.00 | 0.00 | 64 | 1020.5 |
| 20260905213104 | 76 | 77 | 2.0 | 6.0 | 0.00 | 0.00 | 0.00 | 61 | 1020.6 |
| 20260905212604 | 75 | 77 | 2.0 | 6.0 | 0.00 | 0.00 | 0.00 | 63 | 1020.6 |
| 20260905211604 | 75 | 77 | 2.0 | 6.0 | 0.00 | 0.00 | 0.00 | 64 | 1020.7 |
| 20260905211104 | 76 | 77 | 2.0 | 6.0 | 0.00 | 0.00 | 0.00 | 63 | 1020.7 |
| 20260905210604 | 76 | 77 | 2.0 | 6.0 | 0.00 | 0.00 | 0.00 | 63 | 1020.8 |
| 20260905210103 | 76 | 77 | 2.0 | 6.0 | 0.00 | 0.00 | 0.00 | 63 | 1020.8 |
| 20260905205604 | 76 | 77 | 2.0 | 6.0 | 0.00 | 0.00 | 0.00 | 63 | 1020.8 |
| 20260905205103 | 76 | 77 | 2.0 | 6.0 | 0.00 | 0.00 | 0.00 | 64 | 1020.8 |
| 20260905204604 | 76 | 77 | 2.0 | 6.0 | 0.00 | 0.00 | 0.00 | 64 | 1020.9 |
| 20260905204104 | 76 | 77 | 2.0 | 6.0 | 0.00 | 0.00 | 0.00 | 64 | 1021.0 |
| 20260905203604 | 76 | 77 | 2.0 | 6.0 | 0.00 | 0.00 | 0.00 | 64 | 1020.9 |
| 20260905203104 | 76 | 77 | 2.0 | 6.0 | 0.00 | 0.00 | 0.00 | 64 | 1021.1 |
| 20260905202604 | 76 | 77 | 2.0 | 6.0 | 0.00 | 0.00 | 0.00 | 64 | 1021.1 |
| 20260905201604 | 76 | 77 | 2.0 | 6.0 | 0.00 | 0.00 | 0.00 | 64 | 1021.1 |
| 20260905201103 | 76 | 77 | 2.0 | 6.0 | 0.00 | 0.00 | 0.00 | 65 | 1021.2 |
| 20260905200604 | 76 | 77 | 2.0 | 6.0 | 0.00 | 0.00 | 0.00 | 64 | 1021.3 |
| 20260905200104 | 76 | 77 | 2.0 | 6.0 | 0.00 | 0.00 | 0.00 | 65 | 1021.4 |
| 20260905195604 | 76 | 77 | 2.0 | 6.0 | 0.00 | 0.00 | 0.00 | 65 | 1021.5 |
| 20260905195104 | 76 | 77 | 2.0 | 6.0 | 0.00 | 0.00 | 0.00 | 63 | 1021.6 |
| 20260905194603 | 76 | 77 | 2.0 | 6.0 | 0.00 | 0.00 | 0.00 | 65 | 1021.6 |
| 20260905194104 | 76 | 77 | 2.0 | 6.0 | 0.00 | 0.00 | 0.00 | 66 | 1021.5 |
| 20260905193604 | 76 | 77 | 2.0 | 6.0 | 0.00 | 0.00 | 0.00 | 65 | 1021.6 |
| 20260905193104 | 77 | 77 | 2.0 | 6.0 | 0.00 | 0.00 | 0.00 | 62 | 1021.7 |
| 20260905192604 | 77 | 77 | 2.0 | 6.0 | 0.00 | 0.00 | 0.00 | 63 | 1021.7 |
| 20260905192104 | 77 | 77 | 2.0 | 6.0 | 0.00 | 0.00 | 0.00 | 62 | 1021.9 |
| 20260905191604 | 77 | 77 | 2.0 | 6.0 | 0.00 | 0.00 | 0.00 | 63 | 1021.9 |
| 20260905191103 | 77 | 77 | 2.0 | 6.0 | 0.00 | 0.00 | 0.00 | 63 | 1021.9 |
| 20260905190604 | 76 | 77 | 2.0 | 6.0 | 0.00 | 0.00 | 0.00 | 63 | 1021.9 |
| 20260905190104 | 76 | 77 | 2.0 | 6.0 | 0.00 | 0.00 | 0.00 | 64 | 1022.0 |
| 20260905185604 | 76 | 77 | 2.0 | 6.0 | 0.00 | 0.00 | 0.00 | 65 | 1022.0 |
| 20260905185104 | 76 | 77 | 2.0 | 6.0 | 0.00 | 0.00 | 0.00 | 64 | 1022.1 |
| 20260905184603 | 76 | 77 | 2.0 | 6.0 | 0.00 | 0.00 | 0.00 | 65 | 1022.2 |
| 20260905183603 | 76 | 77 | 2.0 | 6.0 | 0.00 | 0.00 | 0.00 | 64 | 1022.3 |
| 20260905182603 | 76 | 77 | 2.0 | 6.0 | 0.00 | 0.00 | 0.00 | 64 | 1022.4 |
| 20260905182103 | 75 | 77 | 2.0 | 6.0 | 0.00 | 0.00 | 0.00 | 65 | 1022.4 |
| 20260905181604 | 76 | 77 | 2.0 | 6.0 | 0.00 | 0.00 | 0.00 | 64 | 1022.5 |
| 20260905181103 | 76 | 77 | 2.0 | 6.0 | 0.00 | 0.00 | 0.00 | 66 | 1022.5 |
| 20260905180604 | 76 | 77 | 2.0 | 6.0 | 0.00 | 0.00 | 0.00 | 64 | 1022.5 |
| 20260905180104 | 77 | 77 | 2.0 | 6.0 | 0.00 | 0.00 | 0.00 | 56 | 1022.7 |
| 20260905175603 | 76 | 77 | 2.0 | 6.0 | 0.00 | 0.00 | 0.00 | 54 | 1022.7 |
| 20260905175104 | 76 | 77 | 2.0 | 6.0 | 0.00 | 0.00 | 0.00 | 56 | 1022.7 |
| 20260905174604 | 76 | 77 | 2.0 | 6.0 | 0.00 | 0.00 | 0.00 | 55 | 1022.7 |
| 20260905174104 | 76 | 77 | 2.0 | 6.0 | 0.00 | 0.00 | 0.00 | 56 | 1022.8 |
| 20260905173604 | 75 | 77 | 2.0 | 6.0 | 0.00 | 0.00 | 0.00 | 57 | 1022.8 |
| 20260905173104 | 75 | 77 | 2.0 | 6.0 | 0.00 | 0.00 | 0.00 | 58 | 1022.8 |
| 20260905172604 | 75 | 77 | 2.0 | 6.0 | 0.00 | 0.00 | 0.00 | 59 | 1022.9 |
| 20260905172103 | 76 | 77 | 2.0 | 6.0 | 0.00 | 0.00 | 0.00 | 57 | 1022.9 |
| 20260905171603 | 76 | 77 | 2.0 | 6.0 | 0.00 | 0.00 | 0.00 | 58 | 1022.9 |
| 20260905171104 | 75 | 77 | 2.0 | 6.0 | 0.00 | 0.00 | 0.00 | 60 | 1022.9 |